Weather History for Valentine, NE

Change the Weather History Date:

Thursday, March 7, 2013

  Actual Average Record
Temperature  
Mean Temperature 45 °F 33 °F  
Max Temperature 65 °F 46 °F 78 °F (1987)
Min Temperature 25 °F 20 °F -21 °F (1943)
Degree Days  
Heating Degree Days 20 32  
Month to date heating degree days 200 229  
Since 1 July heating degree days 5153 5465  
Cooling Degree Days 0 0  
Month to date cooling degree days 0 0  
Year to date cooling degree days 0 0  
Moisture  
Dew Point 25 °F    
Average Humidity 58    
Maximum Humidity 88    
Minimum Humidity 27    
Precipitation  
Precipitation 0.00 in 0.03 in 1.02 in (1909)
Month to date precipitation 0.01 0.18  
Year to date precipitation 1.24 0.92  
Snow  
Snow 0.00 in 0.20 in 10.20 in (1909)
Month to date snowfall 0.3 1.6  
Since 1 July snowfall 27.9 23.7  
Snow Depth -    
Sea Level Pressure  
Sea Level Pressure 30.02 in    
Wind  
Wind Speed 8 mph (South)    
Max Wind Speed 18 mph    
Max Gust Speed 22 mph    
Visibility 10 miles    
Events      
T = Trace of Precipitation, MM = Missing Value Source: NWS Daily Summary

Daily Weather History Graph

Daily Weather History Graph

Search for Another Location

Airport:

Trip Planner

Search our weather history database for the weather conditions in past years. The results will help you decide how hot, cold, wet, or windy it might be!

Date:

Astronomy

Mar. 07, 2013 Rise Set
Actual Time 7:07 AM CST 6:39 PM CST
Civil Twilight 6:39 AM CST 7:07 PM CST
Nautical Twilight 6:06 AM CST 7:40 PM CST
Astronomical Twilight 5:33 AM CST 8:13 PM CST
Moon 4:13 AM CST (3/7) 2:24 PM CST (3/7)
Length of Visible Light 12h 28m
Length of Day
11h 31m
Waning Crescent, 20% of the Moon is Illuminated
Mar 7
Waning Crescent
Mar 11
New
Mar 19
First Quarter
Mar 27
Full
Apr 2
Last Quarter

Hourly Weather History & Observations

Time (CST) Temp. Windchill Dew Point Humidity Pressure Visibility Wind Dir Wind Speed Gust Speed Precip Events Conditions
12:52 AM 28.0 °F 20.0 °F 19.9 °F 72% 30.04 in 10.0 mi SSE 8.1 mph - N/A   Clear
1:52 AM 27.0 °F 16.7 °F 19.9 °F 75% 30.03 in 10.0 mi SSE 11.5 mph - N/A   Clear
2:52 AM 26.1 °F 16.8 °F 19.9 °F 78% 30.02 in 10.0 mi SE 9.2 mph - N/A   Clear
3:52 AM 26.1 °F 17.6 °F 21.0 °F 81% 30.00 in 10.0 mi SSE 8.1 mph - N/A   Clear
4:52 AM 25.0 °F 14.2 °F 21.0 °F 85% 29.99 in 10.0 mi South 11.5 mph - N/A   Clear
5:52 AM 27.0 °F 18.0 °F 21.9 °F 81% 29.99 in 10.0 mi South 9.2 mph - N/A   Clear
6:52 AM 26.6 °F 15.2 °F 21.2 °F 80% 29.92 in 10.0 mi South 13.8 mph - N/A   Clear
7:52 AM 28.0 °F 18.1 °F 23.0 °F 81% 30.03 in 10.0 mi SSW 11.5 mph 19.6 mph N/A   Clear
8:52 AM 30.2 °F 18.9 °F 24.8 °F 80% 29.94 in 10.0 mi SSW 16.1 mph - N/A   Clear
9:52 AM 36.0 °F 28.0 °F 26.1 °F 67% 30.00 in 10.0 mi SSW 11.5 mph - N/A   Clear
10:52 AM 43.0 °F 35.7 °F 27.0 °F 53% 29.99 in 10.0 mi SSW 15.0 mph - N/A   Clear
11:52 AM 48.9 °F - 28.0 °F 44% 29.99 in 10.0 mi SSW 11.5 mph - N/A   Clear
12:52 PM 54.0 °F - 28.0 °F 37% 29.97 in 10.0 mi SSW 5.8 mph - N/A   Clear
1:52 PM 57.9 °F - 28.0 °F 32% 29.96 in 10.0 mi SW 5.8 mph - N/A   Clear
2:52 PM 61.0 °F - 28.9 °F 30% 29.95 in 10.0 mi Calm Calm - N/A   Clear
3:52 PM 63.0 °F - 28.9 °F 28% 29.96 in 10.0 mi Variable 3.5 mph - N/A   Clear
4:52 PM 59.0 °F - 27.0 °F 29% 29.99 in 10.0 mi North 10.4 mph - N/A   Clear
5:52 PM 55.0 °F - 28.0 °F 35% 30.01 in 10.0 mi NNE 5.8 mph - N/A   Clear
6:52 PM 48.9 °F - 27.0 °F 43% 30.05 in 10.0 mi North 8.1 mph - N/A   Clear
7:52 PM 46.0 °F 42.5 °F 27.0 °F 47% 30.08 in 10.0 mi NNE 6.9 mph - N/A   Clear
8:52 PM 37.9 °F - 26.1 °F 62% 30.11 in 10.0 mi Calm Calm - N/A   Clear
9:52 PM 39.0 °F 34.0 °F 27.0 °F 62% 30.12 in 10.0 mi NNE 6.9 mph - N/A   Clear
10:52 PM 34.0 °F - 26.1 °F 73% 30.13 in 10.0 mi Calm Calm - N/A   Clear
11:52 PM 32.0 °F - 24.8 °F 75% 30.09 in 10.0 mi Calm Calm - N/A   Clear